User: anonymous   Login
Location: Bittkow
(50.3000°N, 19.0000°E)
Time: 14:33:58
(UTC+00:00)
Language:

ERS-2 - Orbit

View from above orbital plane
View from above orbital plane
View from above satellite
View from above satellite

Ground track
Ground track

The orbit data is extracted from the following two-line orbital elements,

1 23560U 95021A   21207.07082846  .00001439  00000-0  63029-4 0  9991
2 23560  98.5446  62.5704 0002368 220.8870 139.2187 15.24064812403601
Epoch (UTC): 26 July 2021 01:41:59
Eccentricity: 0.0002368
inclination: 98.5446°
perigee height: 492 km
apogee height: 495 km
right ascension of ascending node: 62.5704°
argument of perigee: 220.8870°
revolutions per day: 15.24064812
mean anomaly at epoch: 139.2187°
orbit number at epoch: 40360

The dashed part of the orbit path shows where the satellite is in the earth's shadow,  

DLR